Flag for French Polynesia Weather past 2 weeks in Papeete, Tahiti, French Polynesia

Now
84 °F

Scattered clouds.


Feels Like: 92 °F
Forecast: 76 / 84 °F
Wind: 9 mph from Northeast

Location: Tahiti-Faaa

Current Time: Aug 29, 2015 at 9:29:22 AM

Latest Report: Aug 29, 2015 at 9:00 AM


Visibility: N/A

Pressure: 29.92 "Hg

Humidity: 74%

Dew point: 75 °F

Location of PapeeteLocation

Historic Weather in Papeete — Graph

°F

Papeete temperature yesterday

Maximum temperature yesterday: 84 °F (at 10:30 AM)
Minimum temperature yesterday: 75 °F (at 4:00 AM)
Average temperature yesterday: 79 °F

Past Weeks' High & Low Weather Summary

 TemperatureHumidityPressure
High86 °F (Aug 18, 1:00 PM)100% (Aug 18, 10:30 PM)30.04 "Hg (Aug 18, 10:30 PM)
Low70 °F (Aug 25, 6:00 AM)54% (Aug 20, 11:30 AM)29.80 "Hg (Aug 28, 4:00 PM)
Average78 °F77%29.93 "Hg
* Reported Aug 14 8:00 AM — Aug 29 8:00 AM, Papeete, Weather by CustomWeather, © 2015

Note: Actual official high and low records may vary slightly from our data, if they occured in-between our weather recording intervals... More about our weather records

Advertising

Papeete weather history for previous 24 hours

 ConditionsComfort  
Time TempWeatherWind HumidityBarometerVisibility
8:00 AM
Sat, Aug 29
82 °FScattered clouds.9 mph74%29.92 "HgN/A
7:30 AM81 °FScattered clouds.12 mph74%29.92 "HgN/A
7:00 AM81 °FScattered clouds.9 mph74%29.89 "HgN/A
6:30 AM79 °FScattered clouds.9 mph79%29.89 "HgN/A
6:00 AM79 °FScattered showers. Passing clouds.10 mph84%29.89 "HgN/A
5:30 AM79 °FOvercast.10 mph79%29.86 "HgN/A
5:00 AM79 °FOvercast.9 mph84%29.86 "HgN/A
4:30 AM79 °FPassing clouds.8 mph84%29.86 "HgN/A
4:00 AM79 °FPassing clouds.13 mph84%29.86 "HgN/A
3:30 AM79 °FPartly cloudy.8 mph79%29.86 "HgN/A
3:00 AM79 °FPassing clouds.12 mph79%29.86 "HgN/A
2:30 AM79 °FScattered showers. Partly cloudy.9 mph79%29.86 "HgN/A
2:00 AM79 °FPassing clouds.10 mph79%29.86 "HgN/A
1:30 AM79 °FPassing clouds.10 mph79%29.86 "HgN/A
1:00 AM79 °FPassing clouds.9 mph79%29.89 "HgN/A
12:00 AM79 °FPassing clouds.10 mph79%29.89 "HgN/A
11:30 PM
Fri, Aug 28
79 °FPassing clouds.10 mph84%29.89 "HgN/A
11:00 PM79 °FPassing clouds.12 mph84%29.89 "HgN/A
10:00 PM77 °FPassing clouds.12 mph89%29.89 "HgN/A
9:30 PM77 °FPassing clouds.16 mph89%29.89 "HgN/A
9:00 PM79 °FPassing clouds.16 mph89%29.89 "HgN/A
8:00 PM79 °FPassing clouds.15 mph84%29.89 "HgN/A
7:30 PM79 °FScattered showers. Passing clouds.16 mph84%29.89 "HgN/A
7:00 PM77 °FPassing clouds.20 mph94%29.86 "HgN/A
6:34 PM79 °FScattered showers. Passing clouds.24 mph89%29.86 "HgN/A
6:00 PM79 °FScattered showers. Partly cloudy.16 mph84%29.83 "HgN/A
5:30 PM79 °FScattered showers. Broken clouds.20 mph84%29.83 "HgN/A
5:00 PM79 °FScattered showers. Scattered clouds.18 mph84%29.83 "HgN/A
4:30 PM81 °FScattered clouds.20 mph79%29.83 "HgN/A
4:00 PM81 °FScattered showers. Scattered clouds.20 mph79%29.80 "HgN/A
3:30 PM81 °FScattered showers. Broken clouds.20 mph79%29.83 "HgN/A
3:00 PM79 °FScattered showers. Broken clouds.21 mph89%29.83 "HgN/A
2:30 PM77 °FScattered showers. Broken clouds.22 mph94%29.83 "HgN/A
2:00 PM79 °FLight rain. Broken clouds.21 mph84%29.83 "Hg5 mi
1:30 PM77 °FScattered showers. Broken clouds.24 mph89%29.86 "Hg5 mi
1:00 PM79 °FScattered showers. Broken clouds.22 mph84%29.86 "HgN/A
12:30 PM81 °FScattered showers. Broken clouds.23 mph79%29.86 "HgN/A
12:00 PM82 °FScattered showers. Broken clouds.20 mph74%29.89 "HgN/A
11:30 AM79 °FScattered showers. Broken clouds.24 mph84%29.89 "HgN/A
11:00 AM82 °FScattered clouds.22 mph70%29.92 "HgN/A
10:30 AM84 °FScattered clouds.21 mph62%29.92 "HgN/A
10:00 AM82 °FScattered clouds.20 mph70%29.92 "HgN/A
9:30 AM82 °FScattered showers. Broken clouds.18 mph70%29.92 "HgN/A
9:00 AM81 °FScattered showers. Broken clouds.20 mph74%29.92 "HgN/A
Weather by CustomWeather, © 2015

See weather overviewHow to use our weather pages